Tracking 30685 objects as of 17-Jun-2025
HD Live streaming from Space Station
objects crossing your sky now

COSMOS 1275 DEB

Track COSMOS 1275 DEB now!
10-day predictions


NORAD ID: 20505
Int'l Code: 1981-053MS
Perigee: 714.8 km
Apogee: 741.1 km
Inclination: 83.2 °
Period: 99.2 minutes
Semi major axis: 7098 km
RCS: 0.0047 m2 (small)
Launch date: June 4, 1981
Source: Commonwealth of Independent States (former USSR) (CIS)
Launch site: PLESETSK MISSILE AND SPACE COMPLEX (PKMTR)

Note: This is SATELLITE DEBRIS
Your satellite tracking list
Your tracking list is empty




NASA's NSSDC Master Catalog

Two Line Element Set (TLE):
1 20505U 81053MM  25167.31924040  .00003508  00000-0  87172-3 0  9997
2 20505  83.1541 191.4638 0018520  92.3243 268.0077 14.51486994622288
Source of the keplerian elements: AFSPC